Location: Dal�� Lhota
(48.7500°N, 14.0167°E)
Time: 16:55:55
(UTC+00:00)

Explorer 7 - Pass Details

Date: 06 August 2021
Orbit: 484 x 676 km, 50.3° (Epoch: 21 September)

Event Time Altitude Azimuth Distance (km) Brightness Sun altitude
Rises 02:16:54 0° 223° (SW) 2,535 - -12.5°
Reaches altitude 10° 02:19:10 10° 214° (SW) 1,661 - -12.3°
Exits shadow 02:20:18 18° 204° (SSW) 1,262 8.1 -12.1°
Maximum altitude 02:22:35 35° 148° (SSE) 814 7.6 -11.9°
Drops below altitude 10° 02:26:06 10° 81° (E) 1,706 10.2 -11.4°
Sets 02:28:27 0° 73° (ENE) 2,616 11.6 -11.2°
